Погода в Каласине

Таиланд     16°26′31″N   103°32′22″E
темп.,
°C
ветер,
м/с
пор.,
м/с
влажн.,
%
обл.,
%
осадки,
мм/ч
давл.,
гПа
погр.,
м
23 января, сб
сб2301:00+22в344632 0.0 101047
04:00+19в367296 0.0 1010128
07:00+18в357360 0.0 1012121
10:00+27вюв34410 0.0 1013676
13:00+32юв32290 0.0 10101749
16:00+33юв22240 0.0 10072439
19:00+26вюв22340 0.0 100924
22:00+25всв23380 0.0 101124
24 января, вс
вс2401:00+23всв33440 0.0 101139
04:00+20ююв34650 0.0 101054
07:00+18юв22810 0.0 101223
10:00+27вюв46470 0.0 1013602
13:00+34ююв22290 0.0 10112394
16:00+34зсз22240 0.0 10072695
19:00+27с23350 0.0 100924
22:00+25всв22410 0.0 101124
25 января, пн
пн2501:00+24св23454 0.0 101024
04:00+22вюв23510 0.0 101034
07:00+20ююз11590 0.0 101223
10:00+29юв33400 0.0 1013579
13:00+34юв11290 0.0 10102149
16:00+35всв11240 0.0 10072577
19:00+28св33340 0.0 100825
22:00+27св23370 0.0 101027
26 января, вт
вт2601:00+24в47470 0.0 1010157
04:00+22в511660 0.0 1010261
07:00+20в310700 0.0 1012301
10:00+28в57440 0.0 1013810
13:00+33в44310 0.0 10101603
16:00+34всв33260 0.0 10072360
19:00+27св11360 0.0 100824
22:00+23в410590 0.0 1010312
27 января, ср
ср2701:00+21всв49730 0.0 1011285
04:00+19в388119 0.0 1010206
07:00+18св238514 0.0 101269
10:00+28в45510 0.0 1013671
13:00+33в22306 0.0 10102053
16:00+35ссв22230 0.0 10072652
19:00+28с34340 0.0 100829
22:00+25св23410 0.0 101024